Weather History for Laconia, NH

Change the Weather History Date:

Monday, February 20, 2012

  Actual Average Record
Temperature  
Mean Temperature 30 °F -  
Max Temperature 35 °F 38 °F 52 °F (1995)
Min Temperature 24 °F 16 °F -15 °F (1993)
Degree Days  
Heating Degree Days 36    
Moisture  
Dew Point 10 °F    
Average Humidity 46    
Maximum Humidity 64    
Minimum Humidity 30    
Precipitation  
Precipitation 0.00 in - - ()
Sea Level Pressure  
Sea Level Pressure 30.10 in    
Wind  
Wind Speed 8 mph (WNW)    
Max Wind Speed 22 mph    
Max Gust Speed 31 mph    
Visibility 10 miles    
Events      
Averages and records for this station are not official NWS values.
T = Trace of Precipitation, MM = Missing Value Source: NWS Daily Summary

Daily Weather History Graph

Daily Weather History Graph

Search for Another Location

Airport:

Trip Planner

Search our weather history database for the weather conditions in past years. The results will help you decide how hot, cold, wet, or windy it might be!

Date:

Astronomy

Feb. 20, 2012 Rise Set
Actual Time 6:37 AM EST 5:22 PM EST
Civil Twilight 6:08 AM EST 5:51 PM EST
Nautical Twilight 5:34 AM EST 6:24 PM EST
Astronomical Twilight 5:01 AM EST 6:57 PM EST
Moon 5:33 AM EST (2/20) 4:23 PM EST (2/20)
Length of Visible Light 11h 42m
Length of Day
10h 44m
Waning Crescent, 2% of the Moon is Illuminated
Feb 20
Waning Crescent
Feb 21
New
Feb 29
First Quarter
Mar 8
Full
Mar 14
Last Quarter

Hourly Weather History & Observations

Time (EST) Temp. Windchill Dew Point Humidity Pressure Visibility Wind Dir Wind Speed Gust Speed Precip Events Conditions
12:15 AM 24.8 °F 19.1 °F 12.2 °F 59% 30.00 in 10.0 mi West 4.6 mph - N/A   Clear
12:55 AM 24.8 °F - 12.2 °F 59% 30.00 in 10.0 mi Calm Calm - N/A   Clear
1:15 AM 24.8 °F 17.9 °F 12.2 °F 59% 29.99 in 10.0 mi West 5.8 mph - N/A   Clear
1:35 AM 24.8 °F 19.1 °F 10.4 °F 54% 30.00 in 10.0 mi West 4.6 mph - N/A   Clear
1:55 AM 24.8 °F 17.9 °F 10.4 °F 54% 29.99 in 10.0 mi SW 5.8 mph - N/A   Clear
2:15 AM 24.8 °F 13.4 °F 10.4 °F 54% 29.99 in 10.0 mi West 12.7 mph 19.6 mph N/A   Clear
2:35 AM 24.8 °F 15.3 °F 10.4 °F 54% 29.99 in 10.0 mi West 9.2 mph - N/A   Clear
2:55 AM 24.8 °F 15.3 °F 10.4 °F 54% 29.98 in 10.0 mi West 9.2 mph - N/A   Clear
3:35 AM 24.8 °F 16.9 °F 10.4 °F 54% 29.98 in 10.0 mi West 6.9 mph - N/A   Clear
3:55 AM 24.8 °F 17.9 °F 10.4 °F 54% 29.99 in 10.0 mi West 5.8 mph - N/A   Clear
4:15 AM 24.8 °F 14.6 °F 10.4 °F 54% 29.99 in 10.0 mi West 10.4 mph 18.4 mph N/A   Clear
4:35 AM 24.8 °F 15.3 °F 10.4 °F 54% 29.99 in 10.0 mi West 9.2 mph 16.1 mph N/A   Clear
4:55 AM 24.8 °F 14.0 °F 10.4 °F 54% 30.00 in 10.0 mi West 11.5 mph 18.4 mph N/A   Clear
5:15 AM 24.8 °F 14.6 °F 10.4 °F 54% 30.00 in 10.0 mi West 10.4 mph 23.0 mph N/A   Clear
5:55 AM 24.8 °F 16.1 °F 8.6 °F 50% 30.01 in 10.0 mi WNW 8.1 mph 18.4 mph N/A   Clear
6:15 AM 24.8 °F 17.9 °F 8.6 °F 50% 30.00 in 10.0 mi West 5.8 mph - N/A   Clear
6:35 AM 24.8 °F 16.9 °F 8.6 °F 50% 30.01 in 10.0 mi West 6.9 mph - N/A   Clear
6:55 AM 24.8 °F 16.1 °F 6.8 °F 46% 30.01 in 10.0 mi WNW 8.1 mph 17.3 mph N/A   Clear
7:15 AM 24.8 °F 17.9 °F 6.8 °F 46% 30.02 in 10.0 mi West 5.8 mph - N/A   Clear
7:35 AM 24.8 °F 15.3 °F 6.8 °F 46% 30.03 in 10.0 mi West 9.2 mph - N/A   Clear
7:55 AM 24.8 °F 15.3 °F 6.8 °F 46% 30.03 in 10.0 mi West 9.2 mph 16.1 mph N/A   Clear
8:15 AM 26.6 °F 20.0 °F 6.8 °F 43% 30.04 in 10.0 mi West 5.8 mph - N/A   Clear
8:35 AM 26.6 °F 17.5 °F 6.8 °F 43% 30.05 in 10.0 mi WNW 9.2 mph 16.1 mph N/A   Clear
9:15 AM 26.6 °F 13.4 °F 5.0 °F 40% 30.06 in 10.0 mi WNW 18.4 mph 23.0 mph N/A   Clear
9:35 AM 28.4 °F 18.5 °F 3.2 °F 34% 30.07 in 10.0 mi NW 11.5 mph 23.0 mph N/A   Clear
10:15 AM 28.4 °F 18.5 °F 3.2 °F 34% 30.07 in 10.0 mi NNW 11.5 mph 19.6 mph N/A   Clear
10:35 AM 30.2 °F 20.8 °F 3.2 °F 32% 30.08 in 10.0 mi NNW 11.5 mph - N/A   Clear
10:55 AM 30.2 °F 20.8 °F 3.2 °F 32% 30.09 in 10.0 mi NW 11.5 mph - N/A   Clear
11:15 AM 32.0 °F 24.8 °F 3.2 °F 30% 30.09 in 10.0 mi NNW 8.1 mph - N/A   Clear
11:35 AM 33.8 °F 26.4 °F 5.0 °F 30% 30.09 in 10.0 mi NW 9.2 mph - N/A   Clear
11:55 AM 33.8 °F 25.3 °F 6.8 °F 32% 30.09 in 10.0 mi NW 11.5 mph 16.1 mph N/A   Clear
12:15 PM 35.6 °F 27.5 °F 6.8 °F 30% 30.09 in 10.0 mi NW 11.5 mph 17.3 mph N/A   Clear
12:55 PM 35.6 °F 27.5 °F 8.6 °F 33% 30.09 in 10.0 mi NNW 11.5 mph 20.7 mph N/A   Clear
1:15 PM 35.6 °F 27.1 °F 6.8 °F 30% 30.10 in 10.0 mi NW 12.7 mph 23.0 mph N/A   Clear
1:35 PM 35.6 °F 27.1 °F 6.8 °F 30% 30.11 in 10.0 mi NW 12.7 mph 24.2 mph N/A   Clear
1:55 PM 35.6 °F 25.5 °F 6.8 °F 30% 30.11 in 10.0 mi WNW 17.3 mph 28.8 mph N/A   Clear
2:15 PM 35.6 °F 24.8 °F 8.6 °F 33% 30.12 in 10.0 mi NW 19.6 mph 26.5 mph N/A   Clear
2:35 PM 33.8 °F 21.9 °F 8.6 °F 35% 30.13 in 10.0 mi WNW 21.9 mph 31.1 mph N/A   Clear
3:15 PM 33.8 °F 23.2 °F 8.6 °F 35% 30.14 in 10.0 mi NW 17.3 mph 26.5 mph N/A   Clear
3:55 PM 33.8 °F 23.5 °F 8.6 °F 35% 30.15 in 10.0 mi NW 16.1 mph 23.0 mph N/A   Clear
4:15 PM 33.8 °F 23.2 °F 8.6 °F 35% 30.16 in 10.0 mi NW 17.3 mph 28.8 mph N/A   Clear
4:35 PM 33.8 °F 24.3 °F 8.6 °F 35% 30.16 in 10.0 mi NW 13.8 mph 21.9 mph N/A   Clear
4:55 PM 33.8 °F 26.4 °F 8.6 °F 35% 30.16 in 10.0 mi WNW 9.2 mph 19.6 mph N/A   Clear
5:15 PM 32.0 °F 25.6 °F 8.6 °F 38% 30.17 in 10.0 mi WNW 6.9 mph - N/A   Clear
5:35 PM 32.0 °F 25.6 °F 8.6 °F 38% 30.17 in 10.0 mi WNW 6.9 mph - N/A   Clear
6:15 PM 30.2 °F 24.3 °F 8.6 °F 40% 30.19 in 10.0 mi West 5.8 mph 16.1 mph N/A   Clear
6:35 PM 30.2 °F 24.3 °F 10.4 °F 44% 30.19 in 10.0 mi West 5.8 mph - N/A   Clear
6:55 PM 30.2 °F 24.3 °F 10.4 °F 44% 30.20 in 10.0 mi WSW 5.8 mph - N/A   Partly Cloudy
7:15 PM 30.2 °F 23.4 °F 12.2 °F 47% 30.20 in 10.0 mi WSW 6.9 mph - N/A   Mostly Cloudy
7:35 PM 28.4 °F 19.7 °F 12.2 °F 51% 30.20 in 10.0 mi WSW 9.2 mph 16.1 mph N/A   Scattered Clouds
7:55 PM 28.4 °F 20.4 °F 14.0 °F 55% 30.20 in 10.0 mi WSW 8.1 mph - N/A   Clear
8:15 PM 28.4 °F 21.2 °F 14.0 °F 55% 30.21 in 10.0 mi West 6.9 mph - N/A   Clear
8:55 PM 28.4 °F 19.7 °F 14.0 °F 55% 30.22 in 10.0 mi West 9.2 mph - N/A   Clear
9:15 PM 28.4 °F 18.5 °F 15.8 °F 59% 30.22 in 10.0 mi West 11.5 mph - N/A   Clear
9:35 PM 28.4 °F 24.6 °F 15.8 °F 59% 30.22 in 10.0 mi West 3.5 mph 16.1 mph N/A   Clear
9:55 PM 28.4 °F 23.3 °F 14.0 °F 55% 30.23 in 10.0 mi West 4.6 mph - N/A   Clear
10:15 PM 28.4 °F 24.6 °F 15.8 °F 59% 30.24 in 10.0 mi West 3.5 mph - N/A   Clear
10:35 PM 28.4 °F 23.3 °F 15.8 °F 59% 30.24 in 10.0 mi WNW 4.6 mph - N/A   Clear
10:55 PM 28.4 °F - 15.8 °F 59% 30.24 in 10.0 mi Calm Calm - N/A   Clear
11:35 PM 26.6 °F 22.6 °F 15.8 °F 64% 30.26 in 10.0 mi West 3.5 mph - N/A   Clear
11:55 PM 26.6 °F - 15.8 °F 64% 30.26 in 10.0 mi Calm Calm - N/A   Clear